User: anonymous   Login
Location: Caltech
(34.1382°N, 118.1253°W)
Time: 21:14:25
(UTC-07:00)
Language:

SO-67 - Orbit

View from above orbital plane
View from above orbital plane
View from above satellite
View from above satellite

Ground track
Ground track

The orbit data is extracted from the following two-line orbital elements,

1 35870U 09049F   17114.84935391 +.00012365 +00000-0 +20031-3 0  9997
2 35870 097.1057 132.0632 0000387 193.6095 291.1198 15.52926369424944
Epoch (UTC): 24 April 2017 20:23:04
Eccentricity: 0.0000387
inclination: 97.1057°
perigee height: 408 km
apogee height: 408 km
right ascension of ascending node: 132.0632°
argument of perigee: 193.6095°
revolutions per day: 15.52926369
mean anomaly at epoch: 291.1198°
orbit number at epoch: 42494

The dashed part of the orbit path shows where the satellite is in the earth's shadow,  

DLR